Location: Spruce Knob
(38.6995°N, 79.5330°W)
Time: 19:08:20
(UTC-04:00)

A-11 Canister half - Pass Details

Date: 05 February 2022
Orbit: 1513 x 1686 km, 47.2° (Epoch: 26 May)

Event Time Altitude Azimuth Distance (km) Brightness Sun altitude
Rises 18:06:45 0° 292° (WNW) 4,761 12.5 -4.9°
Reaches altitude 10° 18:09:58 10° 297° (WNW) 3,753 11.8 -5.5°
Maximum altitude 18:19:17 59° 16° (NNE) 1,733 9.2 -7.3°
Drops below altitude 10° 18:28:22 10° 95° (E) 3,669 10.4 -9.0°
Enters shadow 18:28:53 - 96° (E) 3,830 10.5 -9.1°
Sets 18:31:28 0° 99° (E) 4,648 - -9.6°
